Date String (YYYY-MM-DD hh:mm:ss) UTC,Instrument flags,Ambient pressure (hPa),Sample flow (lpm),Bypass flow (lpm),Sample temperature (°C),Ambient temperature (°C),ASC tube jacket temperature (°C),LED temperature (°C),Box temperature (°C),Sample RH (%),Span deviation,Mass concentration (μg/m³),Mass concentration (μg/m³),Mass concentration (μg/m³)
DateTimeUTC,F1_M11,P_M11,Q1_M11,Q2_M11,T1_M11,T2_M11,T3_M11,T4_M11,T5_M11,U1_M11,ZSPAN_M11,X0_M11,X2_M11,X1_M11
2022-12-15 20:00:00,,0819.9,4.98,0.00,22.3,22.5,00.0,31.0,24.3,08.1,0000.0,0021.11,0005.41,0004.35
2022-12-15 20:01:00,,0819.9,5.01,0.00,22.4,22.0,00.0,31.1,24.2,08.1,0000.0,0020.20,0005.42,0004.33
2022-12-15 20:02:00,,0819.9,5.00,0.00,22.3,21.5,00.0,31.1,24.1,08.0,0000.0,0020.80,0005.40,0004.32
2022-12-15 20:03:00,,0819.9,4.99,0.00,22.3,21.1,00.0,31.1,24.0,07.8,0000.0,0022.35,0005.40,0004.31
2022-12-15 20:04:00,,0819.9,4.99,0.00,22.2,20.9,00.0,31.1,23.9,07.9,0000.0,0023.04,0005.36,0004.30
2022-12-15 20:05:00,,0819.9,4.99,0.00,22.2,20.7,00.0,31.1,23.8,07.9,0000.0,0021.99,0005.33,0004.29
2022-12-15 20:06:00,,0820.0,5.04,0.00,22.2,20.5,00.0,31.1,23.8,07.9,0000.0,0022.00,0005.34,0004.29
2022-12-15 20:07:00,,0819.9,4.96,0.00,22.2,21.0,00.0,31.1,23.9,07.9,0000.0,0021.62,0005.33,0004.28
2022-12-15 20:08:00,,0820.0,5.02,0.00,22.3,22.2,00.0,31.0,24.2,07.9,0000.0,0021.54,0005.30,0004.27
2022-12-15 20:09:00,,0819.9,5.02,0.00,22.4,22.7,00.0,31.1,24.4,07.8,0000.0,0021.32,0005.26,0004.27
2022-12-15 20:10:00,,0819.9,4.96,0.00,22.4,22.2,00.0,31.2,24.4,07.8,0000.0,0021.91,0005.26,0004.27
2022-12-15 20:11:00,,0819.9,5.05,0.00,22.4,21.8,00.0,31.2,24.2,07.7,0000.0,0022.73,0005.26,0004.27
2022-12-15 20:12:00,,0819.9,4.95,0.00,22.4,21.3,00.0,31.2,24.1,07.7,0000.0,0021.61,0005.28,0004.27
2022-12-15 20:13:00,,0819.9,5.04,0.00,22.3,21.0,00.0,31.2,24.0,07.8,0000.0,0019.26,0005.24,0004.26
2022-12-15 20:14:00,,0819.9,4.96,0.00,22.3,20.9,00.0,31.2,24.0,07.8,0000.0,0017.58,0005.24,0004.25
2022-12-15 20:15:00,,0819.9,5.04,0.00,22.3,20.7,00.0,31.2,23.9,07.6,0000.0,0016.62,0005.21,0004.22
2022-12-15 20:16:00,,0819.9,4.97,0.00,22.3,20.6,00.0,31.2,23.9,07.6,0000.0,0016.83,0005.15,0004.20
2022-12-15 20:17:00,,0819.9,4.99,0.00,22.2,20.5,00.0,31.2,23.8,07.7,0000.0,0015.72,0005.07,0004.17
2022-12-15 20:18:00,,0819.9,5.02,0.00,22.2,20.4,00.0,31.2,23.8,07.6,0000.0,0015.46,0004.99,0004.13
2022-12-15 20:19:00,,0819.9,4.96,0.00,22.2,20.6,00.0,31.1,23.8,07.6,0000.0,0015.57,0004.96,0004.10
2022-12-15 20:20:00,,0819.9,5.03,0.00,22.3,21.7,00.0,31.1,24.1,07.5,0000.0,0015.42,0004.93,0004.07
2022-12-15 20:21:00,,0820.0,4.99,0.00,22.4,22.6,00.0,31.1,24.3,07.4,0000.0,0014.02,0004.86,0004.04
2022-12-15 20:22:00,,0820.0,5.02,0.00,22.4,22.3,00.0,31.1,24.3,07.3,0000.0,0012.94,0004.82,0004.01
2022-12-15 20:23:00,,0820.0,4.97,0.00,22.4,21.8,00.0,31.2,24.2,07.4,0000.0,0012.73,0004.73,0003.98
2022-12-15 20:24:00,,0820.0,5.04,0.00,22.4,21.4,00.0,31.2,24.1,07.3,0000.0,0012.98,0004.70,0003.94
2022-12-15 20:25:00,,0820.1,4.95,0.00,22.4,21.2,00.0,31.2,24.1,07.2,0000.0,0012.80,0004.61,0003.91
2022-12-15 20:26:00,,0820.1,5.04,0.00,22.4,21.0,00.0,31.2,24.0,07.1,0000.0,0011.67,0004.55,0003.89
2022-12-15 20:27:00,,0820.1,4.95,0.00,22.3,20.9,00.0,31.2,24.0,07.1,0000.0,0010.60,0004.50,0003.86
2022-12-15 20:28:00,,0820.1,5.04,0.00,22.3,20.8,00.0,31.2,23.9,07.1,0000.0,0010.66,0004.49,0003.84
2022-12-15 20:29:00,,0820.2,4.95,0.00,22.3,20.7,00.0,31.2,23.9,07.2,0000.0,0010.14,0004.46,0003.82
2022-12-15 20:30:00,,0820.2,5.04,0.00,22.2,20.6,00.0,31.2,23.9,07.3,0000.0,0010.03,0004.45,0003.82
2022-12-15 20:31:00,,0820.2,4.97,0.00,22.2,20.6,00.0,31.2,23.9,07.2,0000.0,0010.08,0004.42,0003.81
2022-12-15 20:32:00,,0820.1,5.04,0.00,22.2,20.5,00.0,31.1,23.8,07.3,0000.0,0010.32,0004.41,0003.79
2022-12-15 20:33:00,,0820.0,4.98,0.00,22.2,20.5,00.0,31.1,23.8,07.2,0000.0,0010.92,0004.38,0003.78
2022-12-15 20:34:00,,0820.0,5.00,0.00,22.2,20.5,00.0,31.1,23.8,07.0,0000.0,0010.94,0004.36,0003.76
2022-12-15 20:35:00,,0820.0,5.01,0.00,22.2,21.2,00.0,31.1,24.0,07.0,0000.0,0010.53,0004.33,0003.74
2022-12-15 20:36:00,,0820.0,5.01,0.00,22.3,22.3,00.0,31.0,24.3,06.9,0000.0,0010.23,0004.31,0003.73
2022-12-15 20:37:00,,0820.0,4.99,0.00,22.4,22.5,00.0,31.1,24.4,06.8,0000.0,0010.00,0004.29,0003.70
2022-12-15 20:38:00,,0819.9,4.99,0.00,22.4,22.0,00.0,31.1,24.3,06.8,0000.0,0010.02,0004.25,0003.68
2022-12-15 20:39:00,,0820.0,5.00,0.00,22.4,21.7,00.0,31.2,24.2,06.7,0000.0,0010.01,0004.18,0003.65
2022-12-15 20:40:00,,0819.9,5.03,0.00,22.4,21.3,00.0,31.2,24.1,06.7,0000.0,0009.61,0004.15,0003.63
2022-12-15 20:41:00,,0820.0,4.95,0.00,22.4,21.0,00.0,31.2,24.1,06.8,0000.0,0009.49,0004.11,0003.61
2022-12-15 20:42:00,,0820.0,5.04,0.00,22.3,20.9,00.0,31.2,24.0,06.8,0000.0,0009.45,0004.04,0003.57
2022-12-15 20:43:00,,0820.0,4.95,0.00,22.3,20.8,00.0,31.2,24.0,06.7,0000.0,0009.20,0004.00,0003.54
2022-12-15 20:44:00,,0820.0,5.05,0.00,22.3,20.7,00.0,31.2,23.9,06.8,0000.0,0008.46,0003.98,0003.52
2022-12-15 20:45:00,,0820.0,4.95,0.00,22.2,20.6,00.0,31.2,23.9,06.8,0000.0,0008.30,0003.94,0003.50
2022-12-15 20:46:00,,0819.9,5.05,0.00,22.2,20.5,00.0,31.1,23.9,06.8,0000.0,0008.58,0003.91,0003.48
2022-12-15 20:47:00,,0819.9,4.96,0.00,22.2,20.5,00.0,31.1,23.8,06.8,0000.0,0009.17,0003.88,0003.45
2022-12-15 20:48:00,,0819.9,5.04,0.00,22.2,20.4,00.0,31.1,23.8,06.8,0000.0,0009.14,0003.86,0003.43
2022-12-15 20:49:00,,0819.9,4.98,0.00,22.1,20.3,00.0,31.1,23.7,06.8,0000.0,0008.84,0003.86,0003.43
2022-12-15 20:50:00,,0820.0,4.99,0.00,22.1,20.6,00.0,31.1,23.8,06.8,0000.0,0008.47,0003.87,0003.44
2022-12-15 20:51:00,,0820.0,5.01,0.00,22.2,21.7,00.0,31.0,24.1,06.8,0000.0,0008.61,0003.87,0003.43
2022-12-15 20:52:00,,0820.0,5.02,0.00,22.3,22.5,00.0,31.0,24.3,06.8,0000.0,0008.56,0003.88,0003.43
2022-12-15 20:53:00,,0819.9,4.98,0.00,22.4,22.1,00.0,31.1,24.3,06.7,0000.0,0008.57,0003.91,0003.43
2022-12-15 20:54:00,,0819.9,5.01,0.00,22.4,21.7,00.0,31.1,24.2,06.8,0000.0,0008.64,0003.91,0003.42
2022-12-15 20:55:00,,0820.0,5.04,0.00,22.4,21.4,00.0,31.2,24.1,06.7,0000.0,0008.70,0003.92,0003.41
2022-12-15 20:56:00,,0820.0,4.96,0.00,22.4,21.2,00.0,31.2,24.1,06.7,0000.0,0009.29,0003.92,0003.41
2022-12-15 20:57:00,,0820.0,5.05,0.00,22.3,21.1,00.0,31.2,24.1,06.8,0000.0,0009.25,0003.91,0003.41
2022-12-15 20:58:00,,0820.0,4.96,0.00,22.3,21.0,00.0,31.2,24.0,06.8,0000.0,0009.23,0003.91,0003.42
2022-12-15 20:59:00,,0820.0,5.03,0.00,22.3,20.8,00.0,31.2,24.0,06.9,0000.0,0009.50,0003.92,0003.44
